Temperature
18 17 17 17 17 17 17 17 17 17 17 17 17 17 17 17 17 17 17 17 17 17 17 17 17 17 17 17 17 16 16 16 16 16 15 15 15 14 14 14 14 14 13
18 18 17 17 17 17 17 17 17 17 17 17 17 17 17 17 17 17 16 16 16 16 16 16 16 16 16 16 16 16 16 16 16 16 15 14 14 14 14 13 13 13 13
18 18 18 17 17 17 17 17 17 17 17 16 16 16 16 16 16 16 16 16 16 16 16 16 16 16 16 16 16 16 16 16 15 15 15 14 14 13 13 13 12 12 12
18 18 18 17 17 17 17 17 17 17 16 16 16 16 16 16 16 16 16 16 16 16 15 15 15 15 15 15 15 15 15 15 15 14 14 14 13 13 12 12 12 11 11
18 18 18 17 17 17 17 16 16 16 16 16 16 16 16 16 16 16 16 16 15 15 15 15 15 15 15 15 15 15 15 14 14 14 13 13 12 12 12 11 11 10 10
18 18 17 17 17 17 16 16 16 16 16 16 16 15 15 16 15 15 15 15 15 15 15 15 15 14 14 14 14 14 14 14 14 13 13 13 12 12 11 11 11 10 9
18 18 17 17 17 16 16 16 16 16 16 15 15 15 15 15 15 15 15 15 15 14 14 14 14 14 14 14 14 13 13 13 13 13 12 12 12 11 11 10 10 9 9
18 18 17 17 17 16 16 16 16 16 15 15 15 15 15 15 15 15 14 14 14 14 14 14 14 14 13 13 13 13 12 12 12 12 12 11 11 10 10 10 9 9 8
18 17 17 17 16 16 16 16 15 15 15 15 15 15 15 14 14 14 14 14 14 13 13 13 13 13 13 12 12 12 12 11 11 11 10 10 10 10 9 9 8 8 7
17 17 16 16 16 16 15 15 15 15 15 15 15 14 14 14 14 13 13 13 13 13 13 12 12 12 11 11 11 11 11 10 10 10 9 9 9 9 8 8 8 8 7
17 16 16 16 16 15 15 15 15 15 14 14 14 14 13 13 13 13 13 13 13 12 12 12 11 11 11 10 10 10 10 9 9 9 9 8 8 8 7 7 7 7 7
16 16 16 15 15 15 15 14 14 14 14 14 14 13 13 13 12 12 12 12 12 12 11 11 10 10 10 9 9 9 9 8 8 8 8 7 7 7 6 6 6 6 6
16 15 15 14 14 14 14 14 14 14 13 13 13 13 12 12 12 12 11 11 11 11 10 10 10 9 9 8 8 8 8 8 8 7 7 7 6 6 6 6 6 5 5
15 15 14 14 14 14 14 13 13 13 13 13 12 12 12 11 11 11 11 10 10 10 9 9 9 8 8 8 7 7 7 7 7 6 6 6 6 5 5 5 5 5 5
14 14 14 13 13 13 13 13 13 12 12 12 12 12 11 11 11 11 10 10 10 9 9 8 8 8 7 7 7 7 6 6 6 6 6 5 5 5 5 5 5 4 4
13 13 13 13 13 12 12 12 12 12 11 11 11 11 11 10 10 10 9 9 9 8 8 8 8 7 7 7 7 6 6 6 5 5 5 5 5 5 4 4 4 4 4
13 13 12 12 12 12 12 11 11 11 10 10 10 10 10 10 9 9 9 8 8 8 8 7 7 7 7 6 6 6 6 5 5 5 5 5 4 4 4 4 4 4 4
12 12 12 11 11 11 11 11 10 10 10 9 9 9 9 9 8 8 8 8 7 7 7 7 7 7 6 6 6 5 5 5 5 5 5 4 4 4 4 4 4 4 4
11 11 11 11 11 10 10 10 10 9 9 9 9 8 8 8 8 7 7 7 7 7 7 7 6 6 6 6 5 5 5 5 5 5 4 4 4 4 4 4 4 4 4
10 10 10 10 10 10 9 9 9 9 9 8 8 8 8 8 7 7 7 7 7 7 7 6 6 6 6 5 5 5 5 5 5 4 4 4 4 4 4 4 4 4 4
10 10 10 10 9 9 9 9 9 8 8 8 8 8 7 7 7 7 7 6 6 6 6 6 6 6 5 5 5 5 5 5 4 4 4 4 4 4 4 4 4 4 4
9 9 9 9 9 9 8 8 8 8 8 8 7 7 7 7 7 7 6 6 6 6 6 6 5 5 5 5 5 5 4 4 4 4 4 4 4 4 4 4 4 4 4
9 9 9 8 8 8 8 8 8 8 7 7 7 7 7 7 6 6 6 6 6 6 5 5 5 5 5 5 5 5 4 4 4 4 4 4 4 4 4 4 4 4 4
8 8 8 8 8 8 8 7 7 7 7 7 7 7 7 6 6 6 6 6 6 5 5 5 5 5 5 5 5 4 4 4 4 4 4 4 4 4 4 4 4 4 4
8 8 8 8 8 7 7 7 7 7 7 7 7 7 6 6 6 6 6 6 6 5 5 5 5 5 5 5 5 5 5 4 4 4 4 4 4 4 4 4 4 4 4
8 8 8 8 7 7 7 7 7 7 7 7 7 7 6 6 6 6 6 6 6 5 5 5 5 5 5 5 5 5 5 5 5 4 4 4 4 4 4 4 4 4 4
Wind_Speed
5 5 5 4 4 5 5 4 4 4 5 5 6 6 6 6 6 6 6 6 6 5 4 5 4 3 3 2 3 3 3 3 4 2 2 3 4 6 9 11 11 12 12
5 5 5 4 4 4 4 3 3 3 4 5 5 5 5 5 6 6 6 6 6 6 5 5 4 3 3 2 3 3 3 4 5 5 2 2 4 5 7 8 9 10 11
5 5 4 4 4 4 3 3 3 3 3 3 4 5 5 5 5 6 6 6 6 5 5 6 5 5 4 3 4 4 4 5 4 6 4 2 3 4 5 7 9 9 10
5 5 4 4 4 3 3 3 3 3 3 3 4 4 4 4 5 5 5 5 5 4 4 4 4 5 5 6 5 5 6 7 7 7 6 3 3 3 4 5 6 5 6
6 5 4 4 3 3 3 3 3 3 3 3 3 3 3 3 4 5 5 6 6 5 4 4 4 6 7 6 6 7 7 7 7 7 5 4 3 4 4 3 6 6 5
6 5 4 4 4 4 3 3 3 2 2 3 3 3 2 2 4 7 7 6 6 6 5 4 4 5 8 9 9 9 9 8 8 6 5 6 4 4 4 5 5 5 3
5 5 4 5 4 3 4 4 3 3 3 3 3 3 3 4 6 6 7 6 6 5 5 5 5 6 8 8 11 12 10 9 7 6 7 5 5 4 6 5 4 3 3
5 5 4 5 5 4 4 4 3 3 3 3 3 4 4 4 6 8 9 6 5 5 5 6 7 6 7 10 10 10 9 8 7 6 6 5 5 6 5 6 6 6 4
5 4 4 5 6 5 5 4 4 4 4 3 4 4 5 4 6 8 8 6 6 6 5 6 7 8 10 13 12 12 11 9 13 15 14 13 12 12 11 8 6 6 3
4 4 4 5 6 6 5 4 4 4 4 4 4 4 4 4 5 7 8 6 7 6 6 6 8 9 11 12 11 11 11 8 8 10 11 11 12 11 9 6 6 5 3
4 5 4 5 5 5 5 4 5 5 5 5 5 4 4 4 5 6 7 6 7 7 6 5 5 11 12 11 10 9 10 9 8 8 8 7 7 7 7 7 5 4 3
5 5 4 4 4 5 6 5 5 5 6 5 5 5 3 3 4 6 8 8 8 8 6 5 6 11 12 11 9 11 13 10 7 7 7 6 5 5 4 6 7 6 4
5 5 5 4 4 4 6 6 5 5 4 4 4 4 3 3 5 8 10 10 10 7 7 11 12 13 12 10 12 13 10 7 7 7 6 4 3 3 4 5 6 7 7
5 5 5 5 4 4 4 4 4 4 4 4 5 5 4 4 4 5 6 8 10 10 9 11 13 12 10 10 9 7 5 5 6 6 5 4 3 4 4 3 3 3 3
5 4 4 4 4 4 3 3 3 2 4 5 5 5 6 5 5 8 8 7 7 8 9 7 6 5 6 6 5 5 4 5 5 4 5 4 4 4 3 3 2 3 3
4 4 3 4 4 4 4 4 7 5 6 6 6 6 4 6 10 11 11 12 13 13 9 6 6 6 6 6 6 5 4 4 4 5 5 4 4 4 3 2 2 2 2
4 4 3 3 4 4 4 4 4 5 8 8 7 8 8 10 11 12 13 13 11 10 6 6 6 6 6 6 6 5 4 4 4 5 5 4 4 4 3 3 2 2 1
3 4 4 3 3 4 4 4 4 5 4 3 5 7 9 10 11 12 13 11 6 5 4 5 5 5 5 5 5 5 5 5 4 4 4 4 4 4 3 3 3 2 1
3 3 3 3 3 4 4 4 4 5 5 4 4 5 7 9 9 9 9 5 6 5 5 5 5 5 5 5 5 5 5 5 5 4 4 4 4 4 3 3 3 3 2
2 4 4 4 4 4 4 5 5 5 5 5 5 5 5 5 5 5 4 4 5 5 5 5 5 5 5 5 5 5 5 5 5 5 4 4 4 4 4 4 3 3 2
3 4 6 5 4 4 4 5 5 5 5 5 4 4 6 5 6 6 5 4 5 5 5 5 5 5 5 4 5 5 6 5 5 5 5 4 4 4 3 3 3 3 3
3 3 4 4 4 4 4 5 5 5 5 5 4 4 6 4 4 4 4 4 4 4 4 5 5 5 5 6 6 6 6 5 5 5 5 5 5 4 4 4 4 3 3
4 4 5 4 4 5 5 4 4 5 5 5 5 5 4 4 4 4 4 4 4 4 5 5 5 5 6 8 9 9 7 7 7 8 6 6 5 5 5 5 5 4 4
4 4 5 5 4 4 4 4 4 4 4 4 4 4 4 4 4 4 4 4 4 4 6 6 7 7 9 9 10 11 11 12 11 11 11 8 7 5 5 5 5 6 5
3 3 4 4 4 4 4 3 3 3 4 4 4 4 4 4 4 4 4 4 5 5 6 7 7 9 10 11 11 12 14 15 14 12 11 9 7 7 6 6 6 6 6
3 3 3 3 3 3 3 3 3 4 4 4 4 4 5 4 4 4 4 4 5 5 6 7 9 11 12 12 14 15 16 16 16 16 12 9 8 7 7 6 7 7 7
Wind_Direction
173 174 173 179 179 176 176 186 194 199 198 200 198 195 196 196 190 185 191 187 187 191 190 188 201 195 186 190 179 178 175 157 157 132 87 79 86 99 96 97 98 97 95
164 160 166 163 164 171 178 186 187 194 200 198 188 187 196 195 187 186 190 188 188 192 193 184 194 182 173 172 162 166 162 153 149 145 125 88 80 101 101 95 92 93 93
153 152 156 163 167 176 181 182 177 180 185 186 179 185 194 193 186 187 184 184 185 187 186 182 180 165 163 153 147 144 137 130 126 138 135 105 88 97 95 90 85 81 88
152 156 165 173 178 183 175 166 167 169 172 183 183 186 186 184 181 177 172 171 169 168 168 167 164 164 166 155 146 138 130 124 121 127 128 120 106 100 108 110 98 81 80
152 160 173 167 159 153 149 153 152 152 164 165 159 163 168 174 179 169 164 161 157 149 145 149 150 150 154 151 147 143 140 135 133 135 135 128 132 133 138 134 122 106 77
156 163 158 150 146 146 143 136 129 129 129 128 140 152 157 170 157 159 156 153 151 148 142 130 124 128 128 124 127 131 138 145 150 147 146 148 154 147 138 141 138 128 112
158 158 156 153 150 151 143 129 127 128 121 116 116 124 126 128 132 136 143 144 141 142 141 136 125 117 116 115 105 99 97 106 130 144 146 153 154 162 149 139 129 114 119
161 160 157 151 150 142 133 132 127 124 123 121 116 116 116 116 122 126 122 123 124 122 128 134 130 122 120 119 109 95 83 73 89 104 121 121 124 133 133 132 124 105 88
166 170 171 161 154 151 152 144 129 122 115 112 112 118 121 119 120 125 123 118 113 106 105 112 120 118 120 119 114 108 97 83 82 93 99 102 108 118 124 120 123 125 110
168 166 161 155 155 158 155 141 126 123 121 115 104 104 115 119 118 123 124 127 123 116 104 103 112 121 124 122 124 124 119 112 107 97 87 84 88 93 103 121 140 139 129
147 143 140 147 150 148 142 134 131 126 121 114 107 95 96 111 114 117 124 132 135 128 122 115 114 119 118 117 118 124 129 126 116 109 100 89 82 78 75 80 97 124 125
129 125 123 129 137 137 137 130 127 129 129 125 118 105 92 94 103 113 116 119 127 130 131 126 122 123 120 118 114 120 120 118 117 111 106 100 95 89 80 79 84 83 84
127 128 128 124 119 130 137 139 136 133 137 136 133 129 119 99 97 103 108 112 115 116 120 123 120 118 113 109 115 121 121 121 122 118 116 108 97 94 92 84 75 76 73
139 140 140 138 130 125 132 142 149 153 156 153 152 151 144 134 130 126 121 117 112 110 112 113 108 103 101 106 113 115 116 124 127 125 121 107 99 99 91 85 85 82 79
135 139 139 140 140 129 116 111 143 153 175 170 172 165 162 165 168 152 143 139 137 132 125 115 113 116 116 116 115 112 115 121 120 121 123 117 112 107 95 86 88 89 93
142 146 148 148 146 142 133 101 64 80 98 114 127 139 135 136 137 136 134 131 130 133 126 133 137 139 140 141 141 133 127 130 131 131 130 130 130 124 111 98 99 107 108
155 157 156 158 160 156 153 150 136 84 78 87 107 123 131 136 135 136 133 128 130 131 127 142 147 150 150 150 148 142 140 140 136 140 138 138 135 132 129 129 125 120 121
147 157 159 160 160 158 156 157 156 150 136 98 81 107 125 132 134 135 132 123 124 134 143 150 153 154 154 152 151 147 143 142 141 147 149 149 150 150 152 153 156 157 165
141 148 152 150 148 148 145 143 141 138 137 131 118 101 113 118 118 132 139 140 155 159 158 158 159 158 159 161 160 157 155 157 158 159 161 159 159 160 167 173 176 176 185
139 143 138 136 138 137 137 138 140 141 140 143 147 144 141 132 137 148 159 157 162 167 168 168 166 164 166 168 164 160 159 162 165 168 169 168 168 173 180 184 187 191 207
131 136 131 128 130 133 135 137 141 144 149 152 153 154 157 159 161 163 168 173 177 177 175 172 168 168 168 164 163 166 171 176 179 179 176 176 176 181 189 193 198 207 217
118 120 122 122 121 123 126 132 137 139 143 143 138 141 150 151 162 169 178 183 183 179 174 169 172 176 177 178 176 175 180 186 187 186 186 186 187 192 194 199 205 212 218
113 115 113 111 114 119 122 126 132 138 142 146 149 153 163 170 172 174 178 178 173 176 179 180 182 187 193 194 192 189 190 196 197 192 189 193 196 199 200 205 210 217 226
113 116 117 117 117 123 130 133 137 144 150 154 159 165 173 179 181 183 182 179 179 188 189 190 194 199 200 199 200 203 207 209 203 199 197 197 199 203 206 213 220 228 234
116 120 126 132 136 137 140 144 152 160 165 169 173 177 182 185 189 193 192 190 192 197 201 200 203 208 211 209 209 212 217 217 214 208 201 201 206 208 211 218 224 231 236
126 128 130 134 141 148 157 168 174 178 184 188 190 190 192 195 198 201 201 200 203 207 211 212 216 219 220 220 222 222 222 221 220 215 205 203 208 214 215 223 230 233 242
Height
1524 1526 1527 1529 1531 1533 1535 1538 1540 1542 1545 1546 1548 1550 1552 1554 1555 1556 1558 1560 1561 1562 1564 1565 1567 1568 1569 1570 1571 1572 1573 1574 1575 1576 1577 1579 1580 1581 1581 1582 1583 1583 1584
1523 1524 1526 1528 1530 1531 1533 1536 1538 1540 1542 1543 1545 1546 1548 1550 1551 1552 1554 1556 1557 1559 1560 1562 1563 1564 1566 1567 1568 1569 1570 1571 1572 1572 1574 1576 1577 1579 1579 1580 1581 1581 1582
1522 1523 1525 1527 1528 1530 1532 1534 1536 1538 1539 1541 1542 1543 1545 1546 1548 1549 1550 1552 1553 1555 1556 1558 1559 1560 1562 1563 1564 1566 1567 1568 1569 1570 1571 1573 1574 1576 1577 1578 1578 1579 1580
1521 1522 1524 1526 1528 1529 1531 1533 1534 1535 1537 1538 1539 1540 1542 1543 1544 1545 1547 1548 1550 1551 1553 1554 1555 1556 1558 1560 1561 1563 1564 1565 1566 1567 1568 1570 1571 1573 1574 1575 1576 1577 1577
1520 1522 1524 1525 1527 1528 1530 1531 1532 1533 1534 1536 1536 1537 1539 1540 1541 1542 1543 1545 1546 1547 1549 1550 1551 1553 1555 1556 1558 1559 1561 1562 1563 1564 1566 1567 1569 1570 1571 1572 1573 1574 1575
1520 1521 1523 1524 1526 1527 1528 1530 1531 1532 1532 1533 1534 1535 1535 1536 1538 1539 1540 1542 1543 1544 1545 1547 1548 1550 1552 1553 1555 1557 1559 1560 1561 1562 1563 1564 1566 1567 1569 1570 1571 1572 1573
1519 1520 1522 1523 1525 1526 1527 1528 1529 1530 1530 1530 1531 1532 1533 1534 1535 1536 1537 1538 1540 1541 1543 1544 1546 1548 1549 1551 1552 1554 1555 1557 1559 1561 1561 1562 1564 1565 1566 1567 1569 1570 1570
1517 1519 1520 1521 1523 1524 1525 1526 1527 1528 1528 1529 1529 1530 1531 1532 1532 1533 1535 1536 1537 1539 1541 1543 1544 1546 1547 1549 1550 1551 1553 1555 1556 1558 1560 1561 1562 1563 1565 1566 1567 1568 1569
1516 1517 1518 1520 1521 1522 1523 1524 1525 1526 1527 1527 1528 1528 1529 1530 1531 1532 1533 1534 1535 1537 1539 1541 1542 1544 1545 1547 1548 1550 1551 1553 1555 1556 1558 1559 1560 1561 1563 1564 1565 1566 1567
1513 1515 1516 1517 1519 1520 1521 1523 1524 1524 1525 1526 1526 1527 1527 1528 1529 1530 1531 1532 1533 1535 1537 1539 1541 1542 1544 1546 1547 1548 1550 1552 1553 1555 1556 1557 1559 1560 1561 1563 1564 1565 1566
1511 1512 1514 1515 1516 1518 1519 1520 1521 1522 1523 1523 1524 1525 1525 1526 1527 1528 1529 1531 1532 1533 1535 1537 1539 1541 1543 1544 1546 1547 1549 1551 1552 1554 1555 1557 1558 1559 1561 1562 1563 1564 1565
1508 1509 1511 1513 1514 1516 1517 1518 1519 1520 1521 1521 1522 1523 1524 1524 1525 1526 1528 1529 1531 1532 1534 1536 1538 1540 1542 1543 1545 1547 1548 1550 1552 1553 1555 1556 1557 1559 1560 1561 1562 1563 1564
1506 1507 1508 1510 1512 1513 1514 1515 1516 1517 1518 1519 1519 1520 1522 1523 1524 1525 1526 1528 1530 1531 1533 1535 1537 1538 1540 1543 1545 1547 1548 1550 1551 1553 1554 1556 1558 1559 1560 1561 1562 1563 1564
1503 1505 1506 1508 1509 1510 1511 1512 1513 1514 1515 1516 1517 1518 1519 1521 1522 1524 1525 1527 1529 1531 1532 1534 1536 1538 1540 1542 1544 1547 1548 1550 1551 1553 1555 1557 1558 1559 1561 1562 1562 1563 1564
1501 1503 1504 1505 1506 1507 1508 1509 1510 1512 1513 1514 1515 1516 1517 1519 1521 1523 1524 1526 1528 1530 1532 1533 1536 1538 1539 1541 1544 1546 1548 1550 1552 1553 1555 1557 1558 1560 1561 1562 1563 1564 1565
1499 1500 1501 1502 1503 1504 1505 1506 1508 1509 1511 1512 1514 1515 1516 1518 1520 1521 1523 1526 1528 1530 1532 1533 1535 1537 1539 1541 1543 1545 1548 1550 1552 1554 1555 1557 1559 1560 1562 1563 1563 1564 1565
1495 1496 1498 1499 1500 1501 1502 1504 1505 1507 1508 1510 1512 1513 1515 1516 1518 1520 1522 1524 1527 1529 1531 1532 1534 1536 1538 1540 1543 1545 1547 1550 1552 1553 1555 1557 1558 1560 1562 1563 1563 1564 1564
1493 1493 1494 1496 1497 1499 1500 1501 1503 1504 1506 1507 1510 1512 1513 1515 1517 1519 1521 1524 1525 1527 1530 1532 1533 1536 1538 1540 1542 1544 1547 1549 1551 1553 1555 1556 1558 1560 1561 1562 1563 1563 1564
1490 1491 1492 1493 1495 1496 1498 1499 1501 1502 1504 1506 1508 1510 1512 1514 1516 1518 1520 1522 1524 1526 1528 1530 1532 1535 1537 1539 1542 1544 1546 1548 1550 1552 1554 1556 1557 1559 1560 1561 1562 1563 1563
1488 1489 1490 1491 1492 1494 1496 1497 1499 1501 1502 1505 1507 1509 1511 1512 1514 1516 1519 1521 1523 1525 1527 1529 1532 1534 1536 1539 1541 1543 1545 1547 1549 1551 1553 1555 1556 1558 1559 1560 1561 1562 1562
1487 1487 1488 1489 1491 1493 1494 1496 1498 1500 1502 1504 1506 1508 1510 1512 1513 1515 1517 1520 1522 1524 1526 1529 1531 1533 1535 1538 1540 1542 1544 1546 1548 1550 1552 1553 1555 1556 1557 1558 1559 1560 1560
1486 1487 1488 1489 1490 1492 1493 1495 1497 1499 1501 1503 1505 1507 1509 1511 1513 1515 1517 1519 1521 1523 1526 1528 1530 1532 1534 1537 1539 1541 1543 1545 1547 1549 1551 1552 1553 1554 1555 1556 1557 1558 1558
1486 1487 1488 1489 1491 1492 1494 1495 1497 1499 1500 1502 1504 1506 1508 1510 1512 1514 1516 1518 1521 1523 1525 1527 1529 1531 1534 1536 1538 1540 1541 1543 1545 1547 1549 1550 1551 1552 1553 1554 1554 1555 1555
1486 1488 1489 1490 1491 1492 1494 1496 1497 1499 1501 1503 1504 1506 1508 1510 1512 1514 1516 1517 1520 1522 1524 1526 1528 1530 1532 1534 1536 1538 1540 1542 1544 1545 1547 1548 1548 1549 1550 1551 1551 1552 1552
1488 1489 1490 1491 1492 1494 1495 1497 1498 1500 1502 1503 1505 1506 1508 1510 1512 1513 1515 1517 1519 1521 1523 1525 1527 1529 1530 1532 1534 1536 1538 1540 1541 1543 1544 1545 1545 1546 1547 1547 1548 1548 1548
1490 1491 1492 1493 1494 1495 1497 1498 1499 1501 1502 1503 1505 1506 1508 1510 1511 1513 1514 1516 1518 1519 1521 1523 1525 1527 1529 1531 1532 1534 1535 1537 1538 1539 1540 1541 1542 1542 1543 1543 1544 1544 1544